Regional Weather Roundup
Issued by NWS

Home | Current Version | Previous Version | Graphics & Text | Print | Product List | Glossary On
Versions: 1 2 3 4 5 6 7 8 9 10 11 12 13 14 15 16 17 18 19 20 21 22 23 24 25 26 27 28 29 30 31 32 33 34 35 36 37 38 39 40 41 42 43 44 45 46 47 48 49 50
000
ASUS43 KLSX 011859
RWRMO

WEATHER SUMMARY FOR MISSOURI
NATIONAL WEATHER SERVICE SPRINGFIELD MO
200 PM CDT FRI AUG 01 2014

NOTE: "FAIR" INDICATES FEW OR NO CLOUDS BELOW 12,000 FEET WITH NO
       SIGNIFICANT WEATHER AND/OR OBSTRUCTIONS TO VISIBILITY.
       CURRENT SKY AND/OR WEATHER CONDITIONS ARE NOT AVAILABLE FOR
       CHILLICOTHE AND FARMINGTON.

MOZ001>031-035>038-043-044-053-054-012000-
...NORTHERN AND WESTERN MISSOURI...

CITY           SKY/WX    TMP DP  RH WIND       PRES   REMARKS
KANSAS CTY INT PTSUNNY   81  60  48 S8        30.08S
KANSAS C DTWN  MOSUNNY   83  60  45 SE6       30.06F
LEE`S SUMMIT   SUNNY     82  60  47 E9        30.09S
ST JOSEPH      PTSUNNY   82  63  52 SE6       30.08S
KIRKSVILLE     CLOUDY    84  60  44 VRB3      30.09F

$$
MOZ066>068-077>081-088>096-101>105-012000-
...SOUTHWEST MISSOURI...

CITY           SKY/WX    TMP DP  RH WIND       PRES   REMARKS
SPRINGFIELD    SUNNY     81  60  48 VRB6      30.10F
JOPLIN         MOSUNNY   81  63  54 E7        30.09F

$$
MOZ032>034-039>042-045>050-055>058-069>072-012000-
...CENTRAL MISSOURI...

CITY           SKY/WX    TMP DP  RH WIND       PRES   REMARKS
COLUMBIA       CLOUDY    73  65  75 N7        30.09F
JEFFERSON CITY CLOUDY    78  64  61 N7        30.08S
ROLLA          CLOUDY    82  54  37 NW7       30.06F
SEDALIA        PTSUNNY   79  62  56 NE7       30.10S
OSAGE BEACH      N/A     81  63  54 N7        30.07S

$$
MOZ051-052-059>065-012000-
...EAST CENTRAL MISSOURI...

CITY           SKY/WX    TMP DP  RH WIND       PRES   REMARKS
ST LOUIS INTL  PTSUNNY   83  57  41 E6        30.06F
SPIRIT OF STL  CLOUDY    83  58  42 N7        30.05S THUNDER
ST CHARLES     PTSUNNY   79  65  62 CALM      30.06S

$$
MOZ072>076-082>087-097>100-106>115-012000-
...SOUTH CENTRAL AND SOUTHEAST MISSOURI...

CITY           SKY/WX    TMP DP  RH WIND       PRES   REMARKS
CAPE GIRARDEAU SUNNY     84  60  44 CALM      30.06F
FARMINGTON     SUNNY     82  59  44 E7        30.09F
POPLAR BLUFF   MOSUNNY   82  63  52 CALM      30.06F
WEST PLAINS    MOSUNNY   77  64  64 S5        30.11F

$$



USA.gov is the U.S. government's official web portal to all federal, state and local government web resources and services.